Location: Banff
(51.1667°N, 115.5667°W)
Time: 20:47:38
(UTC+00:00)

Vanguard 1 Rocket - Pass Details

Date: 02 December 2020
Orbit: 655 x 4221 km, 34.3° (Epoch: 17 January)

Event Time Altitude Azimuth Distance (km) Brightness Sun altitude
Rises 06:01:26 0° 197° (SSW) 7,650 11.9 -56.0°
Enters shadow 06:01:35 - 197° (SSW) 7,634 11.9 -56.0°
Exits shadow 06:44:24 - 92° (E) 6,889 11.7 -59.4°
Sets 06:49:23 0° 83° (E) 7,420 12.0 -59.7°
